Time,TemperatureF,DewpointF,PressureIn,WindDirection,WindDirectionDegrees,WindSpeedMPH,WindSpeedGustMPH,Humidity,HourlyPrecipIn,Conditions,Clouds,dailyrainin,SoftwareType,DateUTC
2013-02-23 00:00:00,33.1,27.3,30.34,SSE,152,0.0,0.0,79,0.00,,,0.00,WeatherCatV1.02B3,2013-02-23 05:00:00,
2013-02-23 00:05:00,33.0,27.2,30.34,SSE,152,0.0,0.0,79,0.00,,,0.00,WeatherCatV1.02B3,2013-02-23 05:05:00,
2013-02-23 00:10:00,33.0,27.5,30.33,SSE,152,0.0,0.0,80,0.00,,,0.00,WeatherCatV1.02B3,2013-02-23 05:10:00,
2013-02-23 00:15:00,33.0,27.5,30.33,SSE,152,1.0,2.0,80,0.00,,,0.00,WeatherCatV1.02B3,2013-02-23 05:15:00,
2013-02-23 00:20:00,33.1,27.3,30.33,SSE,153,0.0,1.0,79,0.00,,,0.00,WeatherCatV1.02B3,2013-02-23 05:20:00,
2013-02-23 00:25:00,33.2,27.4,30.33,SSE,150,0.0,1.0,79,0.00,,,0.00,WeatherCatV1.02B3,2013-02-23 05:25:00,
2013-02-23 00:30:00,33.2,27.4,30.33,SSE,150,1.0,2.0,79,0.00,,,0.00,WeatherCatV1.02B3,2013-02-23 05:30:00,
2013-02-23 00:35:00,33.3,27.8,30.33,SSE,151,0.0,0.0,80,0.00,,,0.00,WeatherCatV1.02B3,2013-02-23 05:35:00,
2013-02-23 00:40:00,33.4,27.6,30.33,SSE,150,1.0,1.0,79,0.00,,,0.00,WeatherCatV1.02B3,2013-02-23 05:40:00,
2013-02-23 00:45:00,33.5,27.7,30.33,SSE,152,0.0,0.0,79,0.00,,,0.00,WeatherCatV1.02B3,2013-02-23 05:45:00,
2013-02-23 00:50:00,33.5,27.7,30.33,SSE,150,1.0,3.0,79,0.00,,,0.00,WeatherCatV1.02B3,2013-02-23 05:50:00,
2013-02-23 00:55:00,33.5,28.0,30.33,SSE,153,0.0,0.0,80,0.00,,,0.00,WeatherCatV1.02B3,2013-02-23 05:55:00,
2013-02-23 01:00:00,33.5,28.0,30.33,SSE,150,0.0,0.0,80,0.00,,,0.00,WeatherCatV1.02B3,2013-02-23 06:00:00,
2013-02-23 01:05:00,33.5,28.0,30.33,SSE,150,0.0,1.0,80,0.00,,,0.00,WeatherCatV1.02B3,2013-02-23 06:05:00,
2013-02-23 01:10:00,33.5,28.0,30.33,SSE,152,0.0,1.0,80,0.00,,,0.00,WeatherCatV1.02B3,2013-02-23 06:10:00,
2013-02-23 01:15:00,33.5,28.0,30.33,SSE,152,0.0,0.0,80,0.00,,,0.00,WeatherCatV1.02B3,2013-02-23 06:15:00,
2013-02-23 01:17:00,33.5,28.0,30.33,SSE,150,0.0,0.0,80,0.00,,,0.00,WeatherCatV1.02B3,2013-02-23 06:17:00,
2013-02-23 01:22:00,33.5,28.0,30.33,SSE,152,0.0,0.0,80,0.00,,,0.00,WeatherCatV1.02B3,2013-02-23 06:22:00,
2013-02-23 01:27:00,33.3,28.1,30.33,SSE,152,0.0,1.0,81,0.00,,,0.00,WeatherCatV1.02B3,2013-02-23 06:27:00,
2013-02-23 01:32:00,33.3,28.1,30.33,SSE,150,1.0,2.0,81,0.00,,,0.00,WeatherCatV1.02B3,2013-02-23 06:32:00,
2013-02-23 01:37:00,33.4,28.2,30.33,SSE,150,0.0,0.0,81,0.00,,,0.00,WeatherCatV1.02B3,2013-02-23 06:37:00,
2013-02-23 01:42:00,33.3,28.4,30.32,SSE,153,0.0,0.0,82,0.00,,,0.00,WeatherCatV1.02B3,2013-02-23 06:42:00,
2013-02-23 01:47:00,33.3,28.4,30.32,SSE,150,0.0,1.0,82,0.00,,,0.00,WeatherCatV1.02B3,2013-02-23 06:47:00,
2013-02-23 01:52:00,33.4,28.5,30.32,SSE,153,0.0,1.0,82,0.00,,,0.00,WeatherCatV1.02B3,2013-02-23 06:52:00,
2013-02-23 01:57:00,33.4,28.5,30.32,SSE,151,0.0,0.0,82,0.00,,,0.00,WeatherCatV1.02B3,2013-02-23 06:57:00,
2013-02-23 02:02:00,33.4,28.5,30.32,SSE,150,1.0,2.0,82,0.00,,,0.00,WeatherCatV1.02B3,2013-02-23 07:02:00,
2013-02-23 02:07:00,33.5,28.6,30.32,SSE,153,0.0,0.0,82,0.00,,,0.00,WeatherCatV1.02B3,2013-02-23 07:07:00,
2013-02-23 02:12:00,33.5,28.6,30.32,SSE,151,0.0,0.0,82,0.00,,,0.00,WeatherCatV1.02B3,2013-02-23 07:12:00,
2013-02-23 02:17:00,33.5,28.6,30.32,SSE,150,0.0,0.0,82,0.00,,,0.00,WeatherCatV1.02B3,2013-02-23 07:17:00,
2013-02-23 02:22:00,33.6,28.7,30.31,SSE,150,0.0,0.0,82,0.00,,,0.00,WeatherCatV1.02B3,2013-02-23 07:22:00,
2013-02-23 02:27:00,33.6,28.7,30.31,SSE,151,0.0,0.0,82,0.00,,,0.00,WeatherCatV1.02B3,2013-02-23 07:27:00,
2013-02-23 02:32:00,33.7,28.8,30.32,SSE,151,0.0,0.0,82,0.00,,,0.00,WeatherCatV1.02B3,2013-02-23 07:32:00,
2013-02-23 02:37:00,33.7,28.8,30.31,SSE,150,0.0,1.0,82,0.00,,,0.00,WeatherCatV1.02B3,2013-02-23 07:37:00,
2013-02-23 02:42:00,33.9,28.7,30.31,SSE,150,0.0,2.0,81,0.00,,,0.00,WeatherCatV1.02B3,2013-02-23 07:42:00,
2013-02-23 02:47:00,33.9,29.0,30.31,SSE,151,0.0,1.0,82,0.00,,,0.00,WeatherCatV1.02B3,2013-02-23 07:47:00,
2013-02-23 02:52:00,33.7,28.8,30.30,SSE,150,0.0,1.0,82,0.00,,,0.00,WeatherCatV1.02B3,2013-02-23 07:52:00,
2013-02-23 02:57:00,33.7,28.8,30.30,SSE,151,0.0,0.0,82,0.00,,,0.00,WeatherCatV1.02B3,2013-02-23 07:57:00,
2013-02-23 03:02:00,33.7,29.1,30.30,SSE,150,0.0,1.0,83,0.00,,,0.00,WeatherCatV1.02B3,2013-02-23 08:02:00,
2013-02-23 03:08:00,33.8,29.2,30.29,SSE,150,0.0,0.0,83,0.00,,,0.00,WeatherCatV1.02B3,2013-02-23 08:08:00,
2013-02-23 03:13:00,33.7,29.1,30.28,SSE,150,1.0,1.0,83,0.00,,,0.00,WeatherCatV1.02B3,2013-02-23 08:13:00,
2013-02-23 03:18:00,33.8,29.2,30.28,SSE,150,0.0,2.0,83,0.00,,,0.00,WeatherCatV1.02B3,2013-02-23 08:18:00,
2013-02-23 03:23:00,33.8,29.2,30.28,SSE,150,0.0,1.0,83,0.00,,,0.00,WeatherCatV1.02B3,2013-02-23 08:23:00,
2013-02-23 03:28:00,33.8,29.5,30.28,SSE,150,1.0,1.0,84,0.00,,,0.00,WeatherCatV1.02B3,2013-02-23 08:28:00,
2013-02-23 03:33:00,33.7,29.4,30.28,SSE,150,0.0,0.0,84,0.00,,,0.00,WeatherCatV1.02B3,2013-02-23 08:33:00,
2013-02-23 03:38:00,33.9,29.6,30.28,SSE,150,0.0,0.0,84,0.00,,,0.00,WeatherCatV1.02B3,2013-02-23 08:38:00,
2013-02-23 03:43:00,33.9,29.6,30.28,SSE,151,0.0,1.0,84,0.00,,,0.00,WeatherCatV1.02B3,2013-02-23 08:43:00,
2013-02-23 03:48:00,34.0,29.7,30.28,SSE,151,0.0,0.0,84,0.00,,,0.00,WeatherCatV1.02B3,2013-02-23 08:48:00,
2013-02-23 03:53:00,34.0,29.7,30.28,SSE,150,0.0,0.0,84,0.00,,,0.00,WeatherCatV1.02B3,2013-02-23 08:53:00,
2013-02-23 03:58:00,34.0,30.0,30.28,SSE,150,0.0,0.0,85,0.00,,,0.00,WeatherCatV1.02B3,2013-02-23 08:58:00,
2013-02-23 04:03:00,33.9,29.9,30.27,SSE,150,0.0,0.0,85,0.00,,,0.00,WeatherCatV1.02B3,2013-02-23 09:03:00,
2013-02-23 04:08:00,33.9,30.2,30.28,SSE,150,0.0,0.0,86,0.00,,,0.00,WeatherCatV1.02B3,2013-02-23 09:08:00,
2013-02-23 04:13:00,33.9,29.9,30.27,SSE,150,0.0,0.0,85,0.00,,,0.00,WeatherCatV1.02B3,2013-02-23 09:13:00,
2013-02-23 04:17:00,33.7,29.7,30.28,SSE,150,0.0,0.0,85,0.00,,,0.00,WeatherCatV1.02B3,2013-02-23 09:17:00,
2013-02-23 04:23:00,33.7,30.0,30.28,SSE,151,0.0,0.0,86,0.00,,,0.00,WeatherCatV1.02B3,2013-02-23 09:23:00,
2013-02-23 04:28:00,33.6,29.9,30.27,SSE,150,0.0,0.0,86,0.00,,,0.00,WeatherCatV1.02B3,2013-02-23 09:28:00,
2013-02-23 04:33:00,33.7,30.0,30.27,SSE,150,0.0,0.0,86,0.00,,,0.00,WeatherCatV1.02B3,2013-02-23 09:33:00,
2013-02-23 04:38:00,33.6,29.9,30.27,SSE,150,0.0,0.0,86,0.00,,,0.00,WeatherCatV1.02B3,2013-02-23 09:38:00,
2013-02-23 04:42:00,33.7,30.0,30.27,SSE,150,0.0,0.0,86,0.00,,,0.00,WeatherCatV1.02B3,2013-02-23 09:42:00,
2013-02-23 04:48:00,33.8,30.1,30.27,SSE,150,0.0,0.0,86,0.00,,,0.00,WeatherCatV1.02B3,2013-02-23 09:48:00,
2013-02-23 04:52:00,33.9,30.2,30.27,SSE,150,1.0,3.0,86,0.00,,,0.00,WeatherCatV1.02B3,2013-02-23 09:52:00,
2013-02-23 04:58:00,33.9,30.2,30.27,SSE,150,1.0,2.0,86,0.00,,,0.00,WeatherCatV1.02B3,2013-02-23 09:58:00,
2013-02-23 05:03:00,34.0,30.3,30.26,SSE,151,0.0,1.0,86,0.00,,,0.00,WeatherCatV1.02B3,2013-02-23 10:03:00,
2013-02-23 05:07:00,34.2,30.5,30.26,SSE,150,0.0,0.0,86,0.00,,,0.00,WeatherCatV1.02B3,2013-02-23 10:07:00,
2013-02-23 05:12:00,34.2,30.5,30.26,SSE,151,1.0,1.0,86,0.00,,,0.00,WeatherCatV1.02B3,2013-02-23 10:12:00,
2013-02-23 05:18:00,34.2,30.5,30.26,SSE,151,0.0,0.0,86,0.00,,,0.00,WeatherCatV1.02B3,2013-02-23 10:18:00,
2013-02-23 05:22:00,34.3,30.6,30.26,SSE,150,0.0,0.0,86,0.00,,,0.00,WeatherCatV1.02B3,2013-02-23 10:22:00,
2013-02-23 05:28:00,34.4,30.7,30.25,SSE,151,0.0,1.0,86,0.00,,,0.00,WeatherCatV1.02B3,2013-02-23 10:28:00,
2013-02-23 05:32:00,34.5,30.8,30.25,SSE,150,2.0,3.0,86,0.00,,,0.00,WeatherCatV1.02B3,2013-02-23 10:32:00,
2013-02-23 05:38:00,34.6,30.9,30.25,SSE,150,0.0,1.0,86,0.00,,,0.00,WeatherCatV1.02B3,2013-02-23 10:38:00,
2013-02-23 05:43:00,34.6,30.9,30.25,SSE,151,0.0,2.0,86,0.00,,,0.00,WeatherCatV1.02B3,2013-02-23 10:43:00,
2013-02-23 05:48:00,34.7,30.9,30.25,SSE,150,0.0,4.0,86,0.00,,,0.00,WeatherCatV1.02B3,2013-02-23 10:48:00,
2013-02-23 05:53:00,34.7,30.9,30.25,SSE,150,1.0,1.0,86,0.00,,,0.00,WeatherCatV1.02B3,2013-02-23 10:53:00,
2013-02-23 05:58:00,34.8,31.0,30.25,SSE,150,0.0,3.0,86,0.00,,,0.00,WeatherCatV1.02B3,2013-02-23 10:58:00,
2013-02-23 06:03:00,34.8,31.0,30.25,SSE,151,1.0,5.0,86,0.00,,,0.00,WeatherCatV1.02B3,2013-02-23 11:03:00,
2013-02-23 06:07:00,34.9,31.1,30.25,SSE,150,0.0,1.0,86,0.00,,,0.00,WeatherCatV1.02B3,2013-02-23 11:07:00,
2013-02-23 06:12:00,34.9,31.1,30.25,SSE,150,1.0,4.0,86,0.00,,,0.00,WeatherCatV1.02B3,2013-02-23 11:12:00,
2013-02-23 06:17:00,34.9,31.1,30.25,SSE,150,0.0,1.0,86,0.00,,,0.00,WeatherCatV1.02B3,2013-02-23 11:17:00,
2013-02-23 06:22:00,34.9,31.1,30.25,SSE,150,0.0,1.0,86,0.00,,,0.00,WeatherCatV1.02B3,2013-02-23 11:22:00,
2013-02-23 06:27:00,34.9,31.1,30.25,SSE,150,0.0,2.0,86,0.00,,,0.00,WeatherCatV1.02B3,2013-02-23 11:27:00,
2013-02-23 06:32:00,35.0,31.5,30.25,SSE,150,1.0,2.0,87,0.00,,,0.00,WeatherCatV1.02B3,2013-02-23 11:32:00,
2013-02-23 06:37:00,34.9,31.4,30.25,SSE,150,0.0,2.0,87,0.00,,,0.00,WeatherCatV1.02B3,2013-02-23 11:37:00,
2013-02-23 06:42:00,34.9,31.7,30.25,SSE,150,0.0,2.0,88,0.00,,,0.00,WeatherCatV1.02B3,2013-02-23 11:42:00,
2013-02-23 06:47:00,34.9,31.7,30.25,SSE,150,0.0,2.0,88,0.00,,,0.00,WeatherCatV1.02B3,2013-02-23 11:47:00,
2013-02-23 06:52:00,34.9,32.0,30.24,SSE,150,0.0,2.0,89,0.00,,,0.00,WeatherCatV1.02B3,2013-02-23 11:52:00,
2013-02-23 06:57:00,35.0,32.1,30.24,SSE,150,2.0,3.0,89,0.00,,,0.00,WeatherCatV1.02B3,2013-02-23 11:57:00,
2013-02-23 07:02:00,35.0,32.1,30.25,SSE,151,1.0,2.0,89,0.00,,,0.00,WeatherCatV1.02B3,2013-02-23 12:02:00,
2013-02-23 07:07:00,35.0,32.1,30.25,SSE,150,1.0,2.0,89,0.00,,,0.00,WeatherCatV1.02B3,2013-02-23 12:07:00,
2013-02-23 07:12:00,35.0,32.4,30.25,SSE,150,0.0,1.0,90,0.00,,,0.00,WeatherCatV1.02B3,2013-02-23 12:12:00,
2013-02-23 07:17:00,35.1,32.5,30.25,SSE,150,2.0,4.0,90,0.00,,,0.00,WeatherCatV1.02B3,2013-02-23 12:17:00,
2013-02-23 07:22:00,35.1,32.5,30.25,SSE,150,3.0,3.0,90,0.00,,,0.00,WeatherCatV1.02B3,2013-02-23 12:22:00,
2013-02-23 07:27:00,35.1,32.7,30.25,SSE,151,0.0,2.0,91,0.00,,,0.00,WeatherCatV1.02B3,2013-02-23 12:27:00,
2013-02-23 07:32:00,35.1,32.7,30.25,SSE,150,0.0,2.0,91,0.00,,,0.00,WeatherCatV1.02B3,2013-02-23 12:32:00,
2013-02-23 07:37:00,35.1,32.7,30.24,SSE,150,2.0,3.0,91,0.00,,,0.00,WeatherCatV1.02B3,2013-02-23 12:37:00,
2013-02-23 07:42:00,35.1,33.0,30.24,SSE,150,0.0,5.0,92,0.00,,,0.00,WeatherCatV1.02B3,2013-02-23 12:42:00,
2013-02-23 07:47:00,35.1,33.0,30.24,SSE,151,0.0,3.0,92,0.00,,,0.00,WeatherCatV1.02B3,2013-02-23 12:47:00,
2013-02-23 07:52:00,35.2,33.1,30.24,SSE,150,2.0,2.0,92,0.00,,,0.00,WeatherCatV1.02B3,2013-02-23 12:52:00,
2013-02-23 07:57:00,35.3,32.9,30.23,SSE,150,0.0,1.0,91,0.00,,,0.00,WeatherCatV1.02B3,2013-02-23 12:57:00,
2013-02-23 08:02:00,35.4,33.0,30.23,SSE,151,0.0,4.0,91,0.00,,,0.00,WeatherCatV1.02B3,2013-02-23 13:02:00,
2013-02-23 08:07:00,35.5,33.1,30.23,SSE,150,2.0,4.0,91,0.00,,,0.00,WeatherCatV1.02B3,2013-02-23 13:07:00,
2013-02-23 08:12:00,35.5,33.1,30.22,SSE,151,2.0,7.0,91,0.00,,,0.00,WeatherCatV1.02B3,2013-02-23 13:12:00,
2013-02-23 08:18:00,35.6,33.2,30.23,SSE,150,3.0,4.0,91,0.00,,,0.00,WeatherCatV1.02B3,2013-02-23 13:18:00,
2013-02-23 08:23:00,35.7,33.3,30.23,SSE,151,1.0,4.0,91,0.00,,,0.00,WeatherCatV1.02B3,2013-02-23 13:23:00,
2013-02-23 08:27:00,35.8,33.2,30.22,SSE,151,4.0,5.0,90,0.00,,,0.00,WeatherCatV1.02B3,2013-02-23 13:27:00,
2013-02-23 08:32:00,35.9,33.3,30.22,SSE,150,1.0,4.0,90,0.00,,,0.00,WeatherCatV1.02B3,2013-02-23 13:32:00,
2013-02-23 08:37:00,36.0,33.4,30.22,SSE,151,2.0,4.0,90,0.00,,,0.00,WeatherCatV1.02B3,2013-02-23 13:37:00,
2013-02-23 08:42:00,36.0,33.4,30.22,SSE,150,2.0,2.0,90,0.00,,,0.00,WeatherCatV1.02B3,2013-02-23 13:42:00,
2013-02-23 08:47:00,36.1,33.5,30.21,SSE,151,0.0,2.0,90,0.00,,,0.00,WeatherCatV1.02B3,2013-02-23 13:47:00,
2013-02-23 08:52:00,36.3,33.7,30.21,SSE,150,0.0,5.0,90,0.00,,,0.00,WeatherCatV1.02B3,2013-02-23 13:52:00,
2013-02-23 08:57:00,36.3,33.4,30.21,SSE,150,3.0,3.0,89,0.00,,,0.00,WeatherCatV1.02B3,2013-02-23 13:57:00,
2013-02-23 09:02:00,36.4,33.5,30.21,SSE,151,1.0,5.0,89,0.00,,,0.00,WeatherCatV1.02B3,2013-02-23 14:02:00,
2013-02-23 09:07:00,36.5,33.6,30.21,SSE,150,2.0,3.0,89,0.00,,,0.00,WeatherCatV1.02B3,2013-02-23 14:07:00,
2013-02-23 09:12:00,36.6,33.7,30.21,SSE,150,0.0,1.0,89,0.00,,,0.00,WeatherCatV1.02B3,2013-02-23 14:12:00,
2013-02-23 09:17:00,36.7,33.8,30.20,SSE,150,0.0,4.0,89,0.00,,,0.00,WeatherCatV1.02B3,2013-02-23 14:17:00,
2013-02-23 09:22:00,36.8,33.9,30.21,SSE,151,0.0,4.0,89,0.00,,,0.00,WeatherCatV1.02B3,2013-02-23 14:22:00,
2013-02-23 09:27:00,36.8,33.9,30.21,SSE,150,4.0,4.0,89,0.00,,,0.00,WeatherCatV1.02B3,2013-02-23 14:27:00,
2013-02-23 09:32:00,36.8,33.9,30.21,SSE,150,1.0,3.0,89,0.00,,,0.00,WeatherCatV1.02B3,2013-02-23 14:32:00,
2013-02-23 09:37:00,36.9,34.0,30.20,SSE,150,3.0,4.0,89,0.00,,,0.00,WeatherCatV1.02B3,2013-02-23 14:37:00,
2013-02-23 09:42:00,36.9,33.7,30.20,SSE,150,1.0,6.0,88,0.00,,,0.00,WeatherCatV1.02B3,2013-02-23 14:42:00,
2013-02-23 09:47:00,36.9,33.7,30.20,SSE,150,0.0,4.0,88,0.00,,,0.00,WeatherCatV1.02B3,2013-02-23 14:47:00,
2013-02-23 09:52:00,37.0,33.8,30.20,SSE,150,2.0,5.0,88,0.00,,,0.00,WeatherCatV1.02B3,2013-02-23 14:52:00,
2013-02-23 09:57:00,37.0,33.8,30.20,SSE,150,3.0,4.0,88,0.00,,,0.00,WeatherCatV1.02B3,2013-02-23 14:57:00,
2013-02-23 10:02:00,37.1,33.9,30.20,SSE,151,1.0,5.0,88,0.00,,,0.00,WeatherCatV1.02B3,2013-02-23 15:02:00,
2013-02-23 10:07:00,37.1,33.9,30.20,SSE,150,3.0,3.0,88,0.00,,,0.00,WeatherCatV1.02B3,2013-02-23 15:07:00,
2013-02-23 10:12:00,37.1,33.9,30.19,SSE,150,2.0,3.0,88,0.00,,,0.00,WeatherCatV1.02B3,2013-02-23 15:12:00,
2013-02-23 10:17:00,37.1,33.9,30.19,SSE,150,1.0,4.0,88,0.00,,,0.00,WeatherCatV1.02B3,2013-02-23 15:17:00,
2013-02-23 10:22:00,37.2,34.3,30.19,SSE,150,3.0,8.0,89,0.00,,,0.00,WeatherCatV1.02B3,2013-02-23 15:22:00,
2013-02-23 10:27:00,37.2,34.3,30.18,SSE,150,4.0,8.0,89,0.00,,,0.00,WeatherCatV1.02B3,2013-02-23 15:27:00,
2013-02-23 10:32:00,37.1,34.2,30.18,SSE,150,3.0,6.0,89,0.00,,,0.00,WeatherCatV1.02B3,2013-02-23 15:32:00,
2013-02-23 10:37:00,37.1,34.2,30.17,SSE,151,2.0,6.0,89,0.00,,,0.00,WeatherCatV1.02B3,2013-02-23 15:37:00,
2013-02-23 10:42:00,37.2,34.3,30.17,SSE,150,3.0,6.0,89,0.00,,,0.00,WeatherCatV1.02B3,2013-02-23 15:42:00,
2013-02-23 10:47:00,37.2,34.3,30.17,SSE,150,3.0,8.0,89,0.00,,,0.00,WeatherCatV1.02B3,2013-02-23 15:47:00,
2013-02-23 10:52:00,37.3,34.4,30.17,SSE,150,2.0,2.0,89,0.00,,,0.00,WeatherCatV1.02B3,2013-02-23 15:52:00,
2013-02-23 10:57:00,37.3,34.4,30.17,SSE,150,0.0,3.0,89,0.00,,,0.00,WeatherCatV1.02B3,2013-02-23 15:57:00,
2013-02-23 11:02:00,37.3,34.4,30.16,SSE,150,2.0,7.0,89,0.00,,,0.00,WeatherCatV1.02B3,2013-02-23 16:02:00,
2013-02-23 11:07:00,37.4,34.5,30.16,SSE,150,0.0,2.0,89,0.00,,,0.00,WeatherCatV1.02B3,2013-02-23 16:07:00,
2013-02-23 11:12:00,37.5,34.3,30.16,SSE,150,3.0,9.0,88,0.00,,,0.00,WeatherCatV1.02B3,2013-02-23 16:12:00,
2013-02-23 11:17:00,37.6,34.4,30.15,SSE,151,2.0,2.0,88,0.00,,,0.00,WeatherCatV1.02B3,2013-02-23 16:17:00,
2013-02-23 11:22:00,37.6,34.4,30.16,SSE,150,5.0,6.0,88,0.00,,,0.00,WeatherCatV1.02B3,2013-02-23 16:22:00,
2013-02-23 11:27:00,37.6,34.4,30.16,SSE,150,3.0,6.0,88,0.00,,,0.00,WeatherCatV1.02B3,2013-02-23 16:27:00,
2013-02-23 11:32:00,37.6,34.4,30.16,SSE,150,6.0,8.0,88,0.00,,,0.00,WeatherCatV1.02B3,2013-02-23 16:32:00,
2013-02-23 11:37:00,37.5,34.3,30.16,SSE,150,3.0,5.0,88,0.00,,,0.00,WeatherCatV1.02B3,2013-02-23 16:37:00,
2013-02-23 11:42:00,37.4,34.5,30.16,SSE,150,3.0,6.0,89,0.00,,,0.00,WeatherCatV1.02B3,2013-02-23 16:42:00,
2013-02-23 11:47:00,37.4,34.5,30.16,SSE,150,0.0,4.0,89,0.00,,,0.00,WeatherCatV1.02B3,2013-02-23 16:47:00,
2013-02-23 11:52:00,37.4,34.5,30.16,SSE,150,0.0,8.0,89,0.00,,,0.00,WeatherCatV1.02B3,2013-02-23 16:52:00,
2013-02-23 11:57:00,37.3,34.4,30.15,SSE,151,1.0,5.0,89,0.00,,,0.00,WeatherCatV1.02B3,2013-02-23 16:57:00,
2013-02-23 12:02:00,37.3,34.4,30.15,SSE,150,2.0,7.0,89,0.00,,,0.00,WeatherCatV1.02B3,2013-02-23 17:02:00,
2013-02-23 12:07:00,37.2,34.3,30.15,SSE,150,3.0,7.0,89,0.00,,,0.00,WeatherCatV1.02B3,2013-02-23 17:07:00,
2013-02-23 12:12:00,37.1,34.4,30.15,SSE,151,4.0,5.0,90,0.00,,,0.00,WeatherCatV1.02B3,2013-02-23 17:12:00,
2013-02-23 12:17:00,37.0,34.6,30.15,SSE,150,5.0,5.0,91,0.00,,,0.00,WeatherCatV1.02B3,2013-02-23 17:17:00,
2013-02-23 12:22:00,36.9,34.8,30.15,SSE,151,0.0,5.0,92,0.00,,,0.00,WeatherCatV1.02B3,2013-02-23 17:22:00,
2013-02-23 12:27:00,36.9,34.8,30.14,SSE,150,3.0,7.0,92,0.00,,,0.00,WeatherCatV1.02B3,2013-02-23 17:27:00,
2013-02-23 12:32:00,36.8,34.7,30.13,SSE,150,5.0,7.0,92,0.00,,,0.00,WeatherCatV1.02B3,2013-02-23 17:32:00,
2013-02-23 12:37:00,36.8,35.0,30.13,SSE,153,3.0,6.0,93,0.00,,,0.00,WeatherCatV1.02B3,2013-02-23 17:37:00,
2013-02-23 12:42:00,36.7,34.9,30.13,SSE,153,2.0,4.0,93,0.00,,,0.00,WeatherCatV1.02B3,2013-02-23 17:42:00,
2013-02-23 12:47:00,36.7,34.9,30.13,SSE,150,0.0,4.0,93,0.00,,,0.00,WeatherCatV1.02B3,2013-02-23 17:47:00,
2013-02-23 12:52:00,36.6,35.0,30.12,SSE,153,4.0,6.0,94,0.00,,,0.01,WeatherCatV1.02B3,2013-02-23 17:52:00,
2013-02-23 12:57:00,36.6,35.0,30.12,SSE,153,1.0,8.0,94,0.00,,,0.01,WeatherCatV1.02B3,2013-02-23 17:57:00,
2013-02-23 13:02:00,36.6,35.0,30.11,SSE,153,3.0,6.0,94,0.00,,,0.01,WeatherCatV1.02B3,2013-02-23 18:02:00,
2013-02-23 13:07:00,36.6,35.0,30.11,SSE,150,1.0,6.0,94,0.00,,,0.01,WeatherCatV1.02B3,2013-02-23 18:07:00,
2013-02-23 13:12:00,36.6,35.0,30.11,SSE,150,3.0,7.0,94,0.00,,,0.01,WeatherCatV1.02B3,2013-02-23 18:12:00,
2013-02-23 13:17:00,36.6,35.0,30.11,SSE,152,0.0,9.0,94,0.00,,,0.01,WeatherCatV1.02B3,2013-02-23 18:17:00,
2013-02-23 13:22:00,36.5,34.9,30.10,SSE,152,2.0,7.0,94,0.00,,,0.01,WeatherCatV1.02B3,2013-02-23 18:22:00,
2013-02-23 13:27:00,36.5,35.2,30.10,SSE,152,2.0,5.0,95,0.00,,,0.01,WeatherCatV1.02B3,2013-02-23 18:27:00,
2013-02-23 13:32:00,36.5,35.2,30.10,SSE,152,1.0,8.0,95,0.00,,,0.01,WeatherCatV1.02B3,2013-02-23 18:32:00,
2013-02-23 13:37:00,36.6,35.3,30.10,SSE,153,2.0,7.0,95,0.00,,,0.01,WeatherCatV1.02B3,2013-02-23 18:37:00,
2013-02-23 13:42:00,36.7,35.1,30.10,SSE,153,3.0,8.0,94,0.00,,,0.01,WeatherCatV1.02B3,2013-02-23 18:42:00,
2013-02-23 13:47:00,36.8,35.2,30.10,SSE,153,2.0,6.0,94,0.00,,,0.01,WeatherCatV1.02B3,2013-02-23 18:47:00,
2013-02-23 13:52:00,36.9,35.3,30.09,SSE,152,1.0,3.0,94,0.00,,,0.01,WeatherCatV1.02B3,2013-02-23 18:52:00,
2013-02-23 13:57:00,36.9,35.3,30.10,SSE,153,3.0,6.0,94,0.00,,,0.02,WeatherCatV1.02B3,2013-02-23 18:57:00,
2013-02-23 14:02:00,36.9,35.1,30.10,SSE,152,3.0,3.0,93,0.00,,,0.02,WeatherCatV1.02B3,2013-02-23 19:02:00,
2013-02-23 14:07:00,36.9,35.1,30.10,SSE,152,3.0,6.0,93,0.00,,,0.02,WeatherCatV1.02B3,2013-02-23 19:07:00,
2013-02-23 14:12:00,36.9,34.8,30.09,SSE,152,4.0,9.0,92,0.00,,,0.02,WeatherCatV1.02B3,2013-02-23 19:12:00,
2013-02-23 14:17:00,36.9,34.8,30.09,SSE,152,1.0,4.0,92,0.00,,,0.02,WeatherCatV1.02B3,2013-02-23 19:17:00,
2013-02-23 14:22:00,36.8,34.7,30.09,SSE,153,1.0,4.0,92,0.00,,,0.02,WeatherCatV1.02B3,2013-02-23 19:22:00,
2013-02-23 14:27:00,36.8,34.7,30.09,SSE,153,2.0,5.0,92,0.00,,,0.02,WeatherCatV1.02B3,2013-02-23 19:27:00,
2013-02-23 14:32:00,36.8,34.7,30.08,SSE,152,1.0,6.0,92,0.00,,,0.02,WeatherCatV1.02B3,2013-02-23 19:32:00,
2013-02-23 14:37:00,36.8,34.7,30.08,SSE,152,0.0,6.0,92,0.00,,,0.02,WeatherCatV1.02B3,2013-02-23 19:37:00,
2013-02-23 14:42:00,36.9,34.8,30.08,SSE,153,3.0,3.0,92,0.00,,,0.02,WeatherCatV1.02B3,2013-02-23 19:42:00,
2013-02-23 14:47:00,36.9,34.8,30.08,SSE,152,5.0,5.0,92,0.00,,,0.02,WeatherCatV1.02B3,2013-02-23 19:47:00,
2013-02-23 14:52:00,36.9,34.8,30.08,SSE,152,1.0,3.0,92,0.00,,,0.02,WeatherCatV1.02B3,2013-02-23 19:52:00,
2013-02-23 14:57:00,36.9,34.8,30.08,SSE,152,2.0,6.0,92,0.00,,,0.02,WeatherCatV1.02B3,2013-02-23 19:57:00,
2013-02-23 15:02:00,36.8,34.7,30.08,SSE,152,1.0,3.0,92,0.00,,,0.02,WeatherCatV1.02B3,2013-02-23 20:02:00,
2013-02-23 15:07:00,36.7,34.9,30.07,SSE,152,3.0,3.0,93,0.00,,,0.03,WeatherCatV1.02B3,2013-02-23 20:07:00,
2013-02-23 15:12:00,36.5,34.7,30.07,SSE,153,1.0,9.0,93,0.00,,,0.03,WeatherCatV1.02B3,2013-02-23 20:12:00,
2013-02-23 15:17:00,36.5,34.7,30.07,SSE,153,0.0,2.0,93,0.00,,,0.03,WeatherCatV1.02B3,2013-02-23 20:17:00,
2013-02-23 15:22:00,36.4,34.6,30.07,SSE,152,2.0,2.0,93,0.04,,,0.04,WeatherCatV1.02B3,2013-02-23 20:22:00,
2013-02-23 15:27:00,36.4,34.8,30.07,SSE,152,2.0,3.0,94,0.04,,,0.04,WeatherCatV1.02B3,2013-02-23 20:27:00,
2013-02-23 15:32:00,36.3,34.7,30.06,SSE,153,2.0,4.0,94,0.04,,,0.04,WeatherCatV1.02B3,2013-02-23 20:32:00,
2013-02-23 15:37:00,36.2,34.6,30.07,SSE,153,1.0,2.0,94,0.04,,,0.04,WeatherCatV1.02B3,2013-02-23 20:37:00,
2013-02-23 15:42:00,36.1,34.3,30.07,SSE,153,0.0,6.0,93,0.00,,,0.04,WeatherCatV1.02B3,2013-02-23 20:42:00,
2013-02-23 15:47:00,36.0,34.2,30.06,SSE,152,2.0,6.0,93,0.00,,,0.04,WeatherCatV1.02B3,2013-02-23 20:47:00,
2013-02-23 15:52:00,35.9,34.1,30.06,SSE,153,0.0,4.0,93,0.00,,,0.04,WeatherCatV1.02B3,2013-02-23 20:52:00,
2013-02-23 15:57:00,35.9,34.1,30.05,SSE,152,3.0,7.0,93,0.00,,,0.04,WeatherCatV1.02B3,2013-02-23 20:57:00,
2013-02-23 16:02:00,35.8,34.0,30.05,SSE,153,2.0,4.0,93,0.00,,,0.04,WeatherCatV1.02B3,2013-02-23 21:02:00,
2013-02-23 16:07:00,35.8,34.0,30.05,SSE,153,2.0,7.0,93,0.00,,,0.04,WeatherCatV1.02B3,2013-02-23 21:07:00,
2013-02-23 16:12:00,35.7,33.9,30.04,SSE,153,6.0,6.0,93,0.00,,,0.04,WeatherCatV1.02B3,2013-02-23 21:12:00,
2013-02-23 16:17:00,35.6,33.8,30.05,SSE,152,4.0,5.0,93,0.00,,,0.04,WeatherCatV1.02B3,2013-02-23 21:17:00,
2013-02-23 16:22:00,35.5,33.7,30.05,SSE,152,2.0,4.0,93,0.00,,,0.04,WeatherCatV1.02B3,2013-02-23 21:22:00,
2013-02-23 16:27:00,35.5,33.7,30.05,SSE,152,0.0,8.0,93,0.00,,,0.04,WeatherCatV1.02B3,2013-02-23 21:27:00,
2013-02-23 16:32:00,35.3,33.5,30.05,SSE,153,0.0,3.0,93,0.00,,,0.05,WeatherCatV1.02B3,2013-02-23 21:32:00,
2013-02-23 16:37:00,35.3,33.7,30.05,SSE,153,2.0,3.0,94,0.07,,,0.06,WeatherCatV1.02B3,2013-02-23 21:37:00,
2013-02-23 16:42:00,35.2,33.6,30.05,SSE,153,0.0,4.0,94,0.07,,,0.06,WeatherCatV1.02B3,2013-02-23 21:42:00,
2013-02-23 16:47:00,35.2,33.6,30.05,SSE,153,2.0,5.0,94,0.05,,,0.06,WeatherCatV1.02B3,2013-02-23 21:47:00,
2013-02-23 16:52:00,35.2,33.6,30.04,SSE,152,2.0,5.0,94,0.04,,,0.06,WeatherCatV1.02B3,2013-02-23 21:52:00,
2013-02-23 16:57:00,35.0,33.5,30.05,SSE,152,3.0,5.0,94,0.00,,,0.06,WeatherCatV1.02B3,2013-02-23 21:57:00,
2013-02-23 17:02:00,35.0,33.5,30.05,SSE,152,1.0,4.0,94,0.00,,,0.06,WeatherCatV1.02B3,2013-02-23 22:02:00,
2013-02-23 17:07:00,34.9,33.4,30.05,SSE,153,2.0,4.0,94,0.00,,,0.07,WeatherCatV1.02B3,2013-02-23 22:07:00,
2013-02-23 17:12:00,34.8,33.3,30.04,SSE,152,1.0,3.0,94,0.00,,,0.07,WeatherCatV1.02B3,2013-02-23 22:12:00,
2013-02-23 17:17:00,34.8,33.3,30.04,SSE,152,0.0,4.0,94,0.00,,,0.07,WeatherCatV1.02B3,2013-02-23 22:17:00,
2013-02-23 17:22:00,34.8,33.3,30.03,SSE,152,2.0,4.0,94,0.00,,,0.08,WeatherCatV1.02B3,2013-02-23 22:22:00,
2013-02-23 17:27:00,34.7,33.2,30.03,SSE,153,3.0,5.0,94,0.00,,,0.08,WeatherCatV1.02B3,2013-02-23 22:27:00,
2013-02-23 17:32:00,34.7,33.2,30.03,SSE,152,3.0,5.0,94,0.06,,,0.09,WeatherCatV1.02B3,2013-02-23 22:32:00,
2013-02-23 17:37:00,34.6,33.1,30.03,SSE,153,3.0,4.0,94,0.06,,,0.09,WeatherCatV1.02B3,2013-02-23 22:37:00,
2013-02-23 17:42:00,34.6,33.1,30.04,SSE,153,3.0,4.0,94,0.06,,,0.09,WeatherCatV1.02B3,2013-02-23 22:42:00,
2013-02-23 17:47:00,34.5,33.0,30.03,SSE,153,2.0,5.0,94,0.05,,,0.10,WeatherCatV1.02B3,2013-02-23 22:47:00,
2013-02-23 17:52:00,34.4,32.9,30.03,SSE,153,3.0,3.0,94,0.05,,,0.10,WeatherCatV1.02B3,2013-02-23 22:52:00,
2013-02-23 17:57:00,34.4,32.9,30.02,SSE,153,4.0,4.0,94,0.05,,,0.11,WeatherCatV1.02B3,2013-02-23 22:57:00,
2013-02-23 18:02:00,34.3,33.0,30.02,SSE,153,2.0,3.0,95,0.11,,,0.12,WeatherCatV1.02B3,2013-02-23 23:02:00,
2013-02-23 18:07:00,34.2,32.9,30.01,SSE,153,3.0,4.0,95,0.14,,,0.13,WeatherCatV1.02B3,2013-02-23 23:07:00,
2013-02-23 18:12:00,34.2,32.9,30.01,SSE,153,3.0,6.0,95,0.13,,,0.14,WeatherCatV1.02B3,2013-02-23 23:12:00,
2013-02-23 18:17:00,34.1,32.8,30.01,SSE,152,4.0,5.0,95,0.12,,,0.15,WeatherCatV1.02B3,2013-02-23 23:17:00,
2013-02-23 18:22:00,34.0,32.7,30.00,SSE,152,0.0,5.0,95,0.11,,,0.16,WeatherCatV1.02B3,2013-02-23 23:22:00,
2013-02-23 18:27:00,33.9,32.6,30.00,SSE,152,3.0,5.0,95,0.09,,,0.16,WeatherCatV1.02B3,2013-02-23 23:27:00,
2013-02-23 18:32:00,33.9,32.6,30.01,SSE,152,4.0,4.0,95,0.08,,,0.17,WeatherCatV1.02B3,2013-02-23 23:32:00,
2013-02-23 18:37:00,33.9,32.6,30.00,SSE,153,2.0,5.0,95,0.07,,,0.17,WeatherCatV1.02B3,2013-02-23 23:37:00,
2013-02-23 18:42:00,33.9,32.6,30.00,SSE,152,2.0,4.0,95,0.04,,,0.17,WeatherCatV1.02B3,2013-02-23 23:42:00,
2013-02-23 18:47:00,33.9,32.6,30.00,SSE,152,2.0,4.0,95,0.04,,,0.18,WeatherCatV1.02B3,2013-02-23 23:47:00,
2013-02-23 18:52:00,33.8,32.5,30.00,SSE,153,0.0,3.0,95,0.04,,,0.18,WeatherCatV1.02B3,2013-02-23 23:52:00,
2013-02-23 18:57:00,33.8,32.5,30.00,SSE,153,1.0,4.0,95,0.07,,,0.19,WeatherCatV1.02B3,2013-02-23 23:57:00,
2013-02-23 19:02:00,33.7,32.7,30.00,SSE,152,3.0,4.0,96,0.08,,,0.20,WeatherCatV1.02B3,2013-02-24 00:02:00,
2013-02-23 19:07:00,33.7,32.7,30.00,SSE,152,3.0,5.0,96,0.08,,,0.20,WeatherCatV1.02B3,2013-02-24 00:07:00,
2013-02-23 19:12:00,33.7,32.7,30.00,SSE,153,2.0,4.0,96,0.09,,,0.21,WeatherCatV1.02B3,2013-02-24 00:12:00,
2013-02-23 19:17:00,33.7,32.7,29.99,SSE,152,2.0,8.0,96,0.06,,,0.21,WeatherCatV1.02B3,2013-02-24 00:17:00,
2013-02-23 19:22:00,33.8,32.8,29.99,SSE,153,2.0,3.0,96,0.06,,,0.22,WeatherCatV1.02B3,2013-02-24 00:22:00,
2013-02-23 19:27:00,33.9,32.9,29.99,SSE,152,2.0,5.0,96,0.06,,,0.22,WeatherCatV1.02B3,2013-02-24 00:27:00,
2013-02-23 19:32:00,33.9,32.9,30.00,SSE,152,2.0,3.0,96,0.04,,,0.22,WeatherCatV1.02B3,2013-02-24 00:32:00,
2013-02-23 19:37:00,33.9,32.9,29.99,SSE,152,4.0,5.0,96,0.00,,,0.23,WeatherCatV1.02B3,2013-02-24 00:37:00,
2013-02-23 19:42:00,33.9,32.9,29.99,SSE,152,2.0,5.0,96,0.11,,,0.24,WeatherCatV1.02B3,2013-02-24 00:42:00,
2013-02-23 19:47:00,33.9,32.9,29.98,SSE,153,3.0,7.0,96,0.10,,,0.24,WeatherCatV1.02B3,2013-02-24 00:47:00,
2013-02-23 19:52:00,34.0,33.0,29.98,SSE,153,1.0,5.0,96,0.05,,,0.24,WeatherCatV1.02B3,2013-02-24 00:52:00,
2013-02-23 19:57:00,33.9,32.9,29.97,SSE,152,2.0,4.0,96,0.04,,,0.24,WeatherCatV1.02B3,2013-02-24 00:57:00,
2013-02-23 20:02:00,34.0,33.0,29.98,SSE,152,1.0,6.0,96,0.00,,,0.24,WeatherCatV1.02B3,2013-02-24 01:02:00,
2013-02-23 20:07:00,34.0,33.0,29.98,SSE,152,2.0,4.0,96,0.00,,,0.24,WeatherCatV1.02B3,2013-02-24 01:07:00,
2013-02-23 20:12:00,34.0,33.0,29.98,SSE,152,2.0,3.0,96,0.00,,,0.25,WeatherCatV1.02B3,2013-02-24 01:12:00,
2013-02-23 20:17:00,34.1,33.1,29.97,SSE,152,2.0,4.0,96,0.00,,,0.25,WeatherCatV1.02B3,2013-02-24 01:17:00,
2013-02-23 20:22:00,34.1,33.1,29.98,SSE,152,2.0,3.0,96,0.00,,,0.25,WeatherCatV1.02B3,2013-02-24 01:22:00,
2013-02-23 20:27:00,34.1,33.1,29.98,SSE,153,1.0,1.0,96,0.00,,,0.25,WeatherCatV1.02B3,2013-02-24 01:27:00,
2013-02-23 20:32:00,34.1,33.1,29.97,SSE,152,2.0,5.0,96,0.00,,,0.25,WeatherCatV1.02B3,2013-02-24 01:32:00,
2013-02-23 20:37:00,34.1,33.1,29.96,SSE,152,2.0,4.0,96,0.00,,,0.25,WeatherCatV1.02B3,2013-02-24 01:37:00,
2013-02-23 20:42:00,34.1,33.1,29.96,SSE,152,6.0,6.0,96,0.00,,,0.25,WeatherCatV1.02B3,2013-02-24 01:42:00,
2013-02-23 20:47:00,34.1,33.3,29.95,SSE,152,2.0,5.0,97,0.00,,,0.26,WeatherCatV1.02B3,2013-02-24 01:47:00,
2013-02-23 20:52:00,34.1,33.1,29.95,SSE,152,2.0,4.0,96,0.00,,,0.26,WeatherCatV1.02B3,2013-02-24 01:52:00,
2013-02-23 20:57:00,34.2,33.4,29.95,SSE,152,4.0,7.0,97,0.00,,,0.26,WeatherCatV1.02B3,2013-02-24 01:57:00,
2013-02-23 21:02:00,34.2,33.4,29.94,SSE,152,4.0,6.0,97,0.00,,,0.26,WeatherCatV1.02B3,2013-02-24 02:02:00,
2013-02-23 21:07:00,34.2,33.2,29.94,SSE,153,3.0,6.0,96,0.00,,,0.26,WeatherCatV1.02B3,2013-02-24 02:07:00,
2013-02-23 21:12:00,34.3,33.3,29.93,SSE,152,4.0,8.0,96,0.00,,,0.26,WeatherCatV1.02B3,2013-02-24 02:12:00,
2013-02-23 21:17:00,34.2,33.2,29.93,SSE,153,6.0,7.0,96,0.00,,,0.26,WeatherCatV1.02B3,2013-02-24 02:17:00,
2013-02-23 21:22:00,34.3,33.3,29.92,SSE,152,2.0,8.0,96,0.00,,,0.26,WeatherCatV1.02B3,2013-02-24 02:22:00,
2013-02-23 21:27:00,34.3,33.3,29.92,SSE,152,2.0,6.0,96,0.00,,,0.26,WeatherCatV1.02B3,2013-02-24 02:27:00,
2013-02-23 21:32:00,34.3,33.3,29.91,SSE,152,2.0,4.0,96,0.00,,,0.26,WeatherCatV1.02B3,2013-02-24 02:32:00,
2013-02-23 21:37:00,34.3,33.3,29.91,SSE,152,2.0,7.0,96,0.00,,,0.26,WeatherCatV1.02B3,2013-02-24 02:37:00,
2013-02-23 21:42:00,34.3,33.3,29.91,SSE,153,6.0,6.0,96,0.00,,,0.26,WeatherCatV1.02B3,2013-02-24 02:42:00,
2013-02-23 21:47:00,34.3,33.3,29.90,SSE,152,2.0,6.0,96,0.00,,,0.26,WeatherCatV1.02B3,2013-02-24 02:47:00,
2013-02-23 21:52:00,34.3,33.3,29.90,SSE,152,4.0,6.0,96,0.00,,,0.26,WeatherCatV1.02B3,2013-02-24 02:52:00,
2013-02-23 21:57:00,34.4,33.4,29.89,SSE,153,2.0,4.0,96,0.00,,,0.26,WeatherCatV1.02B3,2013-02-24 02:57:00,
2013-02-23 22:02:00,34.4,33.4,29.89,SSE,152,4.0,8.0,96,0.00,,,0.26,WeatherCatV1.02B3,2013-02-24 03:02:00,
2013-02-23 22:07:00,34.5,33.7,29.89,SSE,152,1.0,7.0,97,0.00,,,0.26,WeatherCatV1.02B3,2013-02-24 03:07:00,
2013-02-23 22:12:00,34.5,33.5,29.89,SSE,153,0.0,7.0,96,0.00,,,0.26,WeatherCatV1.02B3,2013-02-24 03:12:00,
2013-02-23 22:17:00,34.5,33.5,29.89,SSE,152,6.0,6.0,96,0.00,,,0.26,WeatherCatV1.02B3,2013-02-24 03:17:00,
2013-02-23 22:22:00,34.6,33.6,29.88,SSE,153,2.0,6.0,96,0.00,,,0.26,WeatherCatV1.02B3,2013-02-24 03:22:00,
2013-02-23 22:27:00,34.7,33.9,29.88,SSE,152,1.0,5.0,97,0.00,,,0.26,WeatherCatV1.02B3,2013-02-24 03:27:00,
2013-02-23 22:32:00,34.8,34.0,29.88,SSE,152,4.0,6.0,97,0.00,,,0.26,WeatherCatV1.02B3,2013-02-24 03:32:00,
2013-02-23 22:37:00,34.9,34.1,29.88,SSE,152,3.0,5.0,97,0.00,,,0.26,WeatherCatV1.02B3,2013-02-24 03:37:00,
2013-02-23 22:42:00,35.0,34.2,29.88,SSE,153,4.0,7.0,97,0.00,,,0.26,WeatherCatV1.02B3,2013-02-24 03:42:00,
2013-02-23 22:47:00,35.0,34.2,29.88,SSE,153,0.0,5.0,97,0.00,,,0.26,WeatherCatV1.02B3,2013-02-24 03:47:00,
2013-02-23 22:52:00,35.1,34.3,29.87,SSE,153,5.0,7.0,97,0.00,,,0.26,WeatherCatV1.02B3,2013-02-24 03:52:00,
2013-02-23 22:57:00,35.2,34.4,29.87,SSE,152,1.0,4.0,97,0.00,,,0.26,WeatherCatV1.02B3,2013-02-24 03:57:00,
2013-02-23 23:02:00,35.4,34.6,29.87,SSE,152,5.0,5.0,97,0.00,,,0.26,WeatherCatV1.02B3,2013-02-24 04:02:00,
2013-02-23 23:07:00,35.3,34.3,29.87,SSE,152,4.0,4.0,96,0.00,,,0.26,WeatherCatV1.02B3,2013-02-24 04:07:00,
2013-02-23 23:12:00,35.3,34.3,29.86,SSE,152,2.0,5.0,96,0.00,,,0.26,WeatherCatV1.02B3,2013-02-24 04:12:00,
2013-02-23 23:17:00,35.3,34.3,29.86,SSE,152,0.0,5.0,96,0.00,,,0.26,WeatherCatV1.02B3,2013-02-24 04:17:00,
2013-02-23 23:22:00,35.3,34.5,29.86,SSE,153,3.0,7.0,97,0.00,,,0.26,WeatherCatV1.02B3,2013-02-24 04:22:00,
2013-02-23 23:27:00,35.3,34.5,29.85,SSE,152,3.0,3.0,97,0.00,,,0.26,WeatherCatV1.02B3,2013-02-24 04:27:00,
2013-02-23 23:32:00,35.3,34.5,29.85,SSE,152,2.0,6.0,97,0.00,,,0.26,WeatherCatV1.02B3,2013-02-24 04:32:00,
2013-02-23 23:37:00,35.3,34.5,29.85,SSE,152,2.0,5.0,97,0.00,,,0.26,WeatherCatV1.02B3,2013-02-24 04:37:00,
2013-02-23 23:42:00,35.2,34.4,29.85,SSE,152,3.0,6.0,97,0.00,,,0.26,WeatherCatV1.02B3,2013-02-24 04:42:00,
2013-02-23 23:47:00,35.2,34.4,29.85,SSE,153,3.0,4.0,97,0.00,,,0.26,WeatherCatV1.02B3,2013-02-24 04:47:00,
2013-02-23 23:52:00,35.3,34.5,29.85,SSE,152,1.0,3.0,97,0.00,,,0.26,WeatherCatV1.02B3,2013-02-24 04:52:00,
2013-02-23 23:57:00,35.3,34.5,29.85,SSE,152,4.0,4.0,97,0.00,,,0.26,WeatherCatV1.02B3,2013-02-24 04:57:00,